Weather History for Farmingdale, NY

Change the Weather History Date:

Tuesday, February 26, 2013

  Actual Average Record
Temperature  
Mean Temperature 38 °F -  
Max Temperature 43 °F 41 °F 57 °F (1998)
Min Temperature 32 °F 28 °F 15 °F (2003)
Degree Days  
Heating Degree Days 28    
Moisture  
Dew Point 32 °F    
Average Humidity 76    
Maximum Humidity 93    
Minimum Humidity 60    
Precipitation  
Precipitation 0.09 in - - ()
Sea Level Pressure  
Sea Level Pressure 30.19 in    
Wind  
Wind Speed 8 mph (East)    
Max Wind Speed 18 mph    
Max Gust Speed 26 mph    
Visibility 9 miles    
Events Rain    
Averages and records for this station are not official NWS values.
T = Trace of Precipitation, MM = Missing Value Source: NWS Daily Summary

Daily Weather History Graph

Daily Weather History Graph

Search for Another Location

Airport:

Trip Planner

Search our weather history database for the weather conditions in past years. The results will help you decide how hot, cold, wet, or windy it might be!

Date:

Astronomy

Feb. 26, 2013 Rise Set
Actual Time 6:31 AM EST 5:41 PM EST
Civil Twilight 6:04 AM EST 6:09 PM EST
Nautical Twilight 5:32 AM EST 6:41 PM EST
Astronomical Twilight 5:00 AM EST 7:12 PM EST
Moon 6:56 PM EST (2/26) 6:32 AM EST (2/26)
Length of Visible Light 12h 05m
Length of Day
11h 09m
Full, 99% of the Moon is Illuminated
Feb 26
Full
Mar 4
Last Quarter
Mar 11
New
Mar 19
First Quarter
Mar 27
Full

Hourly Weather History & Observations

Time (EST) Temp. Windchill Dew Point Humidity Pressure Visibility Wind Dir Wind Speed Gust Speed Precip Events Conditions
12:53 AM 37.0 °F 34.5 °F 30.9 °F 79% 30.22 in 10.0 mi ENE 3.5 mph - N/A   Overcast
1:53 AM 37.9 °F - 32.0 °F 79% 30.25 in 10.0 mi Calm Calm - N/A   Overcast
2:53 AM 37.9 °F 34.4 °F 32.0 °F 79% 30.25 in 10.0 mi ENE 4.6 mph - N/A   Overcast
3:53 AM 37.0 °F 34.5 °F 33.1 °F 86% 30.25 in 9.0 mi ESE 3.5 mph - N/A   Overcast
4:53 AM 36.0 °F 33.3 °F 32.0 °F 86% 30.25 in 8.0 mi ESE 3.5 mph - N/A   Partly Cloudy
5:53 AM 32.0 °F 26.4 °F 28.9 °F 88% 30.25 in 8.0 mi East 5.8 mph - N/A   Scattered Clouds
6:53 AM 34.0 °F 28.8 °F 32.0 °F 92% 30.26 in 6.0 mi East 5.8 mph - N/A   Clear
7:53 AM 37.9 °F 33.5 °F 33.1 °F 83% 30.29 in 7.0 mi East 5.8 mph - N/A   Clear
8:53 AM 41.0 °F 36.4 °F 34.0 °F 76% 30.31 in 10.0 mi ESE 6.9 mph - N/A   Clear
9:53 AM 41.0 °F 33.9 °F 32.0 °F 70% 30.29 in 10.0 mi East 12.7 mph - N/A   Scattered Clouds
10:53 AM 42.1 °F 35.7 °F 32.0 °F 67% 30.30 in 10.0 mi SE 11.5 mph - N/A   Mostly Cloudy
11:48 AM 42.8 °F 35.8 °F 32.0 °F 66% 30.29 in 10.0 mi SE 13.8 mph - N/A   Mostly Cloudy
11:53 AM 43.0 °F 36.8 °F 33.1 °F 68% 30.29 in 10.0 mi SE 11.5 mph - N/A   Mostly Cloudy
12:28 PM 42.8 °F 35.8 °F 30.2 °F 61% 30.26 in 10.0 mi ESE 13.8 mph 19.6 mph N/A   Scattered Clouds
12:53 PM 43.0 °F 36.4 °F 30.0 °F 60% 30.26 in 10.0 mi ESE 12.7 mph - N/A   Scattered Clouds
1:00 PM 42.8 °F 37.5 °F 30.2 °F 61% 30.26 in 10.0 mi ESE 9.2 mph - N/A   Mostly Cloudy
1:39 PM 42.8 °F 36.2 °F 30.2 °F 61% 30.25 in 10.0 mi SE 12.7 mph - N/A   Mostly Cloudy
1:53 PM 43.0 °F 36.4 °F 30.9 °F 62% 30.24 in 10.0 mi ESE 12.7 mph - N/A   Mostly Cloudy
2:53 PM 42.1 °F 35.2 °F 30.0 °F 62% 30.24 in 10.0 mi ESE 12.7 mph 20.7 mph N/A   Overcast
3:53 PM 39.9 °F 32.1 °F 32.0 °F 73% 30.20 in 10.0 mi ESE 13.8 mph 24.2 mph N/A   Overcast
4:53 PM 39.0 °F 30.3 °F 30.9 °F 73% 30.17 in 10.0 mi East 16.1 mph 24.2 mph N/A   Scattered Clouds
5:53 PM 39.0 °F 30.3 °F 28.0 °F 65% 30.16 in 10.0 mi East 16.1 mph 23.0 mph N/A   Clear
6:53 PM 37.9 °F 29.2 °F 30.9 °F 76% 30.15 in 10.0 mi East 15.0 mph 20.7 mph N/A   Overcast
7:53 PM 37.9 °F 29.6 °F 30.9 °F 76% 30.12 in 10.0 mi East 13.8 mph 19.6 mph N/A   Overcast
8:53 PM 37.9 °F 28.9 °F 32.0 °F 79% 30.08 in 10.0 mi East 16.1 mph 24.2 mph 0.00 in Rain Light Rain
9:48 PM 37.4 °F 27.8 °F 33.8 °F 87% 30.02 in 10.0 mi East 17.3 mph 24.2 mph 0.00 in   Overcast
9:53 PM 37.0 °F 27.0 °F 33.1 °F 86% 30.02 in 8.0 mi East 18.4 mph 25.3 mph 0.00 in   Overcast
10:01 PM 37.4 °F 28.9 °F 33.8 °F 87% 30.02 in 3.0 mi East 13.8 mph 26.5 mph 0.00 in   Overcast
10:35 PM 37.4 °F 29.3 °F 35.6 °F 93% 30.00 in 5.0 mi East 12.7 mph 21.9 mph 0.01 in Rain Light Rain
10:53 PM 37.0 °F 29.3 °F 35.1 °F 93% 30.00 in 5.0 mi ENE 11.5 mph 19.6 mph 0.03 in Rain Light Rain
11:53 PM 37.0 °F 28.9 °F 35.1 °F 93% 29.92 in 8.0 mi East 12.7 mph 23.0 mph 0.06 in Rain Light Rain